Regional Weather Roundup
Issued by NWS

Home | Current Version | Previous Version | Text Only | Print | Product List | Glossary Off
Versions: 1 2 3 4 5 6 7 8 9 10 11 12 13 14 15 16 17 18 19 20 21 22 23 24 25 26 27 28 29 30 31 32 33 34 35 36 37 38 39 40 41 42 43 44 45 46 47 48 49 50

000
ASUS45 KBOI 281910
RWRID
WEATHER ROUNDUP FOR IDAHO
NATIONAL WEATHER SERVICE BOISE ID
1200 PM MST WED JAN 28 2015

NOTE: "FAIR" INDICATES FEW OR NO CLOUDS BELOW 12000 FEET
WITH NO SIGNIFICANT WEATHER AND/OR OBSTRUCTIONS TO VISIBILITY

IDZ012-014-282000-
SOUTHWEST IDAHO


CITY           SKY/WX    TMP DP  RH WIND       PRES   REMARKS
BOISE          FOG       36  36 100 CALM      30.37S VSB 1/4
CALDWELL       CLOUDY    36  28  75 CALM      30.40S VSB<1/4
MOUNTAIN HOME  MOSUNNY   39  39 100 NW10      30.35S FOG     WCI  32
$$

IDZ016-017-282000-
SOUTHCENTRAL IDAHO


CITY           SKY/WX    TMP DP  RH WIND       PRES   REMARKS
BURLEY         CLOUDY    43  37  79 W10G20    30.33R
JEROME         CLOUDY    36  35  96 W8        30.34R FOG     WCI  30
TWIN FALLS     MOSUNNY   48  37  65 W20       30.33R
$$

IDZ019>023-282000-
SOUTHEAST IDAHO


CITY           SKY/WX    TMP DP  RH WIND       PRES   REMARKS
IDAHO FALLS    FOG       37  36  96 SW15      30.30R VSB 3/4 WCI  28
POCATELLO      CLOUDY    37  37 100 SW14      30.33S FOG     WCI  28
REXBURG        CLOUDY    35  35 100 W6        30.29S FOG     WCI  30
$$

IDZ006-010-011-018-031-032-282000-
CENTRAL IDAHO MOUNTAINS


CITY           SKY/WX    TMP DP  RH WIND       PRES   REMARKS
MCCALL         SUNNY     35  32  88 S7        30.30S WCI  29
HAILEY         FOG       34  34 100 SE12      30.29F VSB 1/4 WCI  25
STANLEY          N/A     33  30  88 N5        30.33R WCI  29
SALMON         PTSUNNY   30  27  86 CALM      30.33F
CHALLIS        CLOUDY    34  34 100 CALM      30.32S
$$

IDZ002-004-006-007-026-282000-
NORTHERN IDAHO


CITY           SKY/WX    TMP DP  RH WIND       PRES   REMARKS
LEWISTON       CLOUDY    38  37  97 CALM      30.40S FOG
LOWELL           N/A     42  35  76 CALM      30.42R
COEUR D`ALENE  CLOUDY    39  36  87 CALM      30.36S
MULLAN PASS    FOG       29  28  96 VRB3      30.29R VSB 1/4
$$



USA.gov is the U.S. government's official web portal to all federal, state and local government web resources and services.